Location: Buckland
(65.9785°N, 161.1281°W)
Time: 04:03:03
(UTC+00:00)

Transit 4A - Pass Details

Date: 03 December 2020
Orbit: 864 x 980 km, 66.8° (Epoch: 26 January)

Event Time Altitude Azimuth Distance (km) Brightness Sun altitude
Rises 17:06:38 0° 173° (S) 3,657 11.3 -17.0°
Reaches altitude 10° 17:09:45 10° 159° (SSE) 2,724 10.9 -16.7°
Maximum altitude 17:14:24 22° 112° (ESE) 2,020 10.7 -16.3°
Drops below altitude 10° 17:19:03 10° 65° (ENE) 2,743 11.0 -15.8°
Sets 17:22:12 0° 51° (NE) 3,690 11.5 -15.5°
